Regional Weather Roundup
Issued by NWS

Home | Current Version | Previous Version | Text Only | Print | Product List | Glossary On
Versions: 1 2 3 4 5 6 7 8 9 10 11 12 13 14 15 16 17 18 19 20 21 22 23 24 25 26 27 28 29 30 31 32 33 34 35 36 37 38 39 40 41 42 43 44 45 46 47 48 49 50
000
ASUS45 KTFX 200519
RWRMT
MONTANA HOURLY WEATHER ROUNDUP
NATIONAL WEATHER SERVICE GREAT FALLS MT
1119 PM MDT SUN OCT 19 2014

NOTE: "FAIR" INDICATES FEW OR NO CLOUDS BELOW 12000 FEET WITH NO
SIGNIFICANT WEATHER AND/OR OBSTRUCTIONS TO VISIBILITY.

* THESE STATIONS ARE NOT UNDER NWS QUALITY CONTROL. THEY DO NOT
   REPORT WEATHER SUCH AS PRECIPITATION OR FOG.

MTZ001>007-043-200600-
WEST OF THE DIVIDE
CITY           SKY/WX    TMP DP  RH WIND       PRES   REMARKS
* ESSEX        N/A       41  38  89 E2G8       N/A
* LINCOLN      N/A       37  32  82 N1         N/A
* POLSON       N/A       47  37  68 SE1        N/A
* RONAN APT    CLEAR     39  36  89 N/A        N/A
* SEELEY LAKE  N/A       35  32  89 NE1        N/A
* THOMP F APT  CLEAR     50  14  24 N4         N/A
$$

MTZ008-052>055-200600-
SOUTHWEST MONTANA
CITY           SKY/WX    TMP DP  RH WIND       PRES   REMARKS
* THREE FORKS  CLEAR     37  37 100 N/A        N/A
* BOULDER HILL N/A       48  26  42 S7         N/A
* MONIDA PASS  N/A       40  24  53 NW1        N/A
* RAYNOLDS PAS N/A       41  28  60 S6         N/A
* WHITEHALL    N/A       42  28  58 NW4G9      N/A
* WISE RIVER   N/A       41  28  60 SW3        N/A
$$

MTZ009>010-012-014-046-048-049-054-200600-
EAST SLOPES AND CENTRAL MONTANA
CITY           SKY/WX    TMP DP  RH WIND       PRES   REMARKS
* CONRAD       CLEAR     39  30  70 S5         N/A   WCI  35
* DEARBORN     N/A       46  36  68 S2         N/A
* EAST GLACIER N/A       54  32  43 W21G31     N/A
* MONARCH      N/A       48  23  37 S10        N/A
* PENDROY      N/A       49  30  48 W5         N/A
* ROGERS PASS  N/A       52  31  45 NW7        N/A
* SAINT MARY   N/A       57  31  37 S5G13      N/A
* SWEET GRASS  N/A       59  30  33 SW22       N/A
* WHITE SULPH  N/A       45  25  45 E12G17     N/A
$$

MTZ011-013-016-021-035-040-045-047-050-051-200600-
NORTH CENTRAL MONTANA
CITY           SKY/WX    TMP DP  RH WIND       PRES   REMARKS
* CHINOOK      CLEAR     48  41  77 E7        29.87F
* FORT BENTON  CLEAR     50  36  59 CALM      29.89S
* CHESTER      N/A       51  38  61 SE6        N/A
* DENTON       N/A       44  32  63 NE1        N/A
* GEYSER       N/A       45  29  54 SE4G15     N/A
* JUDITH GAP   N/A       43  33  68 SW4        N/A
* LOMA         N/A       55  40  57 E3         N/A
$$

MTZ017>020-022>027-061-062-200600-
NORTHEAST MONTANA
CITY           SKY/WX    TMP DP  RH WIND       PRES   REMARKS
JORDAN         CLEAR     52  37  57 E3        29.94F
* BEAVER HILL  N/A       50  36  59 SE11       N/A
* CIRCLE       N/A       52  39  61 N/A        N/A
* LINDSAY DVD  N/A       50  36  59 E4         N/A
* NAVAJO       N/A       47  38  71 S4         N/A
$$

MTZ028>042-056>058-200600-
SOUTHCENTRAL AND SOUTHEAST MONTANA
CITY           SKY/WX    TMP DP  RH WIND       PRES   REMARKS
* LAUREL APT   CLEAR     52  30  43 N/A        N/A
* ROUNDUP APT  CLEAR     48  32  54 W6         N/A
* ALZADA       N/A       48  38  68 E7         N/A
* HYSHAM       N/A       64  30  28 SE5        N/A
* LAME DEER    N/A       58  34  41 SE6        N/A
* REED POINT   N/A       41  32  70 N/A        N/A
* ROSCOE HILL  N/A       56  23  28 S9         N/A
$$

REGIONAL REPORTS...DAKOTAS
CITY           SKY/WX    TMP DP  RH WIND       PRES   REMARKS
BUFFALO SD     CLEAR     45  34  65 SW3       30.00S
$$

REGIONAL REPORTS...WYOMING/IDAHO/WASHINGTON
CITY           SKY/WX    TMP DP  RH WIND       PRES   REMARKS
YELLOWSTONE LA CLEAR     28  19  69 NW5       30.24S WCI  22

$$




USA.gov is the U.S. government's official web portal to all federal, state and local government web resources and services.